Погода в Филинском

Россия / Нижегородская область     55°45′35″N   42°30′18″E
темп.,
°C
ветер,
м/с
пор.,
м/с
влажн.,
%
обл.,
%
осадки,
мм/ч
давл.,
гПа
погр.,
м
19 апреля, пн
пн1900:00+6всв5128489 0.0 1024542
03:00+4всв51185100 0.0 1024461
06:00+4всв61275100 0.0 1024512
09:00+5всв61261100 0.0 1025651
12:00+9всв7949100 0.0 10251154
15:00+9в794292 0.0 10251523
18:00+7в6104474 0.0 10251433
21:00+4в5125195 0.0 1026802
20 апреля, вт
вт2000:00+3в5135755 0.0 1026629
03:00+2в5136067 0.0 1026505
06:00+2в5136396 0.0 1025595
09:00+5вюв71257100 0.0 1025890
12:00+6вюв61362100 0.0 10241017
15:00+9вюв61253100 0.0 10221347
18:00+9вюв71451100 0.0 10191353
21:00+7вюв81551100 0.0 10171114
21 апреля, ср
ср2100:00+5вюв81972100 1.1 10141146
03:00+4вюв91988100 6.1 10101065
06:00+5юв91986100 0.7 10071017
09:00+6юв91888100 2.7 10051169
12:00+8ююв91787100 0.2 10041295
15:00+8ююз81478100 0.6 10081263
18:00+5ююз61284100 0.1 10111141
21:00+5ююз51185100 0.1 1014958
22 апреля, чт
чт2200:00+5ю41085100 0.0 1016423
03:00+5ю41086100 0.0 1016394
06:00+5ю4109023 0.2 1017443
09:00+9ююз58716 0.2 1018918
12:00+10юз596436 0.0 10181183
15:00+10юз397462 0.2 1019895
18:00+12ююз376843 0.3 1019435
21:00+7ю349027 0.4 102171
23 апреля, пт
пт2300:00+7ююв398972 0.2 1020169
03:00+6ю398398 0.2 1020156
06:00+8ююв3977100 0.0 1020218
09:00+12ю476089 0.0 1020403
12:00+16ю5640100 0.0 10192484
15:00+16ююв554037 0.0 10181928
18:00+14ююв365362 0.0 1017206
21:00+9юв377127 0.0 1017123